Date String (YYYY-MM-DD hh:mm:ss) UTC,Instrument flags,Ambient pressure (hPa),Sample flow (lpm),Bypass flow (lpm),Sample temperature (°C),Ambient temperature (°C),ASC tube jacket temperature (°C),LED temperature (°C),Box temperature (°C),Sample RH (%),Span deviation,Mass concentration (μg/m³),Mass concentration (μg/m³),Mass concentration (μg/m³)
DateTimeUTC,F1_M11,P_M11,Q1_M11,Q2_M11,T1_M11,T2_M11,T3_M11,T4_M11,T5_M11,U1_M11,ZSPAN_M11,X0_M11,X2_M11,X1_M11
2021-11-29 00:00:00,,0829.6,5.00,0.00,29.8,29.0,00.0,38.9,31.5,09.9,0000.0,0002.04,0000.58,0000.36
2021-11-29 00:01:00,,0829.7,4.99,0.00,29.9,29.1,00.0,38.9,31.5,09.9,0000.0,0002.13,0000.58,0000.36
2021-11-29 00:02:00,,0829.6,5.00,0.00,29.9,29.1,00.0,38.9,31.5,09.9,0000.0,0002.14,0000.59,0000.36
2021-11-29 00:03:00,,0829.5,5.01,0.00,29.9,29.1,00.0,38.9,31.6,09.9,0000.0,0001.93,0000.59,0000.37
2021-11-29 00:04:00,,0829.6,5.00,0.00,29.9,29.1,00.0,38.9,31.6,09.9,0000.0,0001.94,0000.59,0000.37
2021-11-29 00:05:00,,0829.6,5.00,0.00,29.9,29.2,00.0,38.9,31.7,09.9,0000.0,0001.95,0000.60,0000.36
2021-11-29 00:06:00,,0829.6,4.98,0.00,29.9,29.2,00.0,38.9,31.7,09.9,0000.0,0001.42,0000.60,0000.37
2021-11-29 00:07:00,,0829.6,5.00,0.00,29.9,29.2,00.0,38.9,31.7,09.9,0000.0,0001.27,0000.58,0000.38
2021-11-29 00:08:00,,0829.6,5.00,0.00,29.9,29.1,00.0,38.9,31.7,09.9,0000.0,0001.27,0000.59,0000.39
2021-11-29 00:09:00,,0829.6,5.00,0.00,29.9,29.2,00.0,38.9,31.6,09.9,0000.0,0001.17,0000.60,0000.40
2021-11-29 00:10:00,,0829.6,5.01,0.00,29.9,29.2,00.0,38.9,31.6,09.9,0000.0,0001.16,0000.61,0000.40
2021-11-29 00:11:00,,0829.5,4.99,0.00,29.9,29.2,00.0,38.9,31.6,09.9,0000.0,0001.20,0000.62,0000.40
2021-11-29 00:12:00,,0829.5,4.99,0.00,29.9,29.1,00.0,38.9,31.6,09.9,0000.0,0001.07,0000.61,0000.40
2021-11-29 00:13:00,,0829.6,5.02,0.00,29.9,29.1,00.0,38.9,31.6,09.9,0000.0,0001.00,0000.60,0000.40
2021-11-29 00:14:00,,0829.5,5.00,0.00,29.9,29.1,00.0,38.9,31.6,09.9,0000.0,0000.99,0000.58,0000.40
2021-11-29 00:15:00,,0829.5,5.00,0.00,29.9,29.1,00.0,38.9,31.6,09.9,0000.0,0001.05,0000.60,0000.39
2021-11-29 00:16:00,,0829.5,4.99,0.00,29.9,29.1,00.0,38.9,31.6,09.9,0000.0,0001.03,0000.61,0000.40
2021-11-29 00:17:00,,0829.5,4.98,0.00,29.9,29.1,00.0,38.9,31.6,09.9,0000.0,0001.02,0000.61,0000.39
2021-11-29 00:18:00,,0829.5,5.01,0.00,29.9,29.1,00.0,38.9,31.6,09.9,0000.0,0001.29,0000.65,0000.39
2021-11-29 00:19:00,,0829.5,5.01,0.00,29.9,29.1,00.0,38.9,31.6,09.8,0000.0,0001.25,0000.62,0000.38
2021-11-29 00:20:00,,0829.6,4.99,0.00,29.9,29.1,00.0,38.9,31.7,09.9,0000.0,0001.79,0000.64,0000.37
2021-11-29 00:21:00,,0829.7,4.99,0.00,29.9,29.2,00.0,38.9,31.7,09.8,0000.0,0002.65,0000.64,0000.37
2021-11-29 00:22:00,,0829.8,5.01,0.00,29.9,29.2,00.0,38.9,31.7,09.8,0000.0,0003.02,0000.65,0000.37
2021-11-29 00:23:00,,0829.5,4.98,0.00,30.0,29.2,00.0,38.9,31.8,09.8,0000.0,0003.19,0000.65,0000.38
2021-11-29 00:24:00,,0829.5,5.00,0.00,30.0,29.2,00.0,38.9,31.7,09.8,0000.0,0003.18,0000.65,0000.38
2021-11-29 00:25:00,,0829.6,5.01,0.00,30.0,29.2,00.0,38.9,31.7,09.8,0000.0,0003.22,0000.66,0000.39
2021-11-29 00:26:00,,0829.6,4.99,0.00,30.0,29.2,00.0,38.9,31.7,09.8,0000.0,0003.14,0000.64,0000.39
2021-11-29 00:27:00,,0830.0,5.01,0.00,30.0,29.2,00.0,38.9,31.8,09.8,0000.0,0003.18,0000.64,0000.39
2021-11-29 00:28:00,,0829.9,5.00,0.00,30.0,29.2,00.0,39.0,31.8,09.8,0000.0,0003.30,0000.66,0000.40
2021-11-29 00:29:00,,0829.8,4.99,0.00,30.0,29.2,00.0,39.0,31.8,09.8,0000.0,0003.06,0000.62,0000.39
2021-11-29 00:30:00,,0829.8,5.01,0.00,30.0,29.2,00.0,39.0,31.7,09.9,0000.0,0003.08,0000.65,0000.40
2021-11-29 00:31:00,,0829.7,5.01,0.00,30.0,29.3,00.0,39.0,31.7,09.9,0000.0,0002.54,0000.63,0000.41
2021-11-29 00:32:00,,0829.6,5.00,0.00,30.0,29.3,00.0,39.0,31.8,09.8,0000.0,0001.79,0000.63,0000.41
2021-11-29 00:33:00,,0829.6,4.99,0.00,30.0,29.3,00.0,39.0,31.8,09.9,0000.0,0001.30,0000.60,0000.41
2021-11-29 00:34:00,,0829.6,5.01,0.00,30.0,29.3,00.0,39.0,31.8,09.8,0000.0,0001.24,0000.62,0000.41
2021-11-29 00:35:00,,0829.7,4.99,0.00,30.1,29.3,00.0,39.0,31.8,09.8,0000.0,0001.33,0000.64,0000.42
2021-11-29 00:36:00,,0829.8,4.99,0.00,30.1,29.3,00.0,39.0,31.8,09.8,0000.0,0001.36,0000.65,0000.42
2021-11-29 00:37:00,,0829.7,5.00,0.00,30.0,29.3,00.0,39.0,31.8,09.8,0000.0,0001.47,0000.70,0000.42
2021-11-29 00:38:00,,0829.8,4.99,0.00,30.1,29.3,00.0,39.0,31.8,09.8,0000.0,0001.42,0000.70,0000.41
2021-11-29 00:39:00,,0829.6,5.00,0.00,30.1,29.3,00.0,39.0,31.8,09.8,0000.0,0001.33,0000.68,0000.41
2021-11-29 00:40:00,,0829.7,5.01,0.00,30.1,29.3,00.0,39.0,31.8,09.8,0000.0,0001.40,0000.67,0000.41
2021-11-29 00:41:00,,0829.7,5.00,0.00,30.1,29.2,00.0,39.0,31.8,09.8,0000.0,0001.58,0000.64,0000.41
2021-11-29 00:42:00,,0829.7,5.00,0.00,30.1,29.2,00.0,39.0,31.8,09.8,0000.0,0002.64,0000.64,0000.41
2021-11-29 00:43:00,,0829.8,5.00,0.00,30.1,29.2,00.0,39.0,31.8,09.8,0000.0,0003.56,0000.65,0000.42
2021-11-29 00:44:00,,0829.7,5.00,0.00,30.1,29.2,00.0,39.0,31.7,09.8,0000.0,0003.66,0000.68,0000.42
2021-11-29 00:45:00,,0829.8,5.00,0.00,30.1,29.2,00.0,39.0,31.8,09.8,0000.0,0003.67,0000.69,0000.42
2021-11-29 00:46:00,,0829.6,5.00,0.00,30.0,29.2,00.0,39.0,31.8,09.8,0000.0,0003.62,0000.68,0000.41
2021-11-29 00:47:00,,0829.8,5.01,0.00,30.1,29.2,00.0,39.0,31.7,09.8,0000.0,0004.04,0000.66,0000.41
2021-11-29 00:48:00,,0829.6,4.99,0.00,30.1,29.2,00.0,39.0,31.8,09.8,0000.0,0004.18,0000.64,0000.41
2021-11-29 00:49:00,,0829.8,5.01,0.00,30.0,29.2,00.0,39.0,31.7,09.8,0000.0,0004.13,0000.62,0000.41
2021-11-29 00:50:00,,0829.7,5.01,0.00,30.0,29.2,00.0,39.0,31.7,09.8,0000.0,0004.21,0000.66,0000.42
2021-11-29 00:51:00,,0829.7,4.98,0.00,30.0,29.2,00.0,39.0,31.7,09.8,0000.0,0004.08,0000.65,0000.42
2021-11-29 00:52:00,,0829.9,5.01,0.00,30.0,29.2,00.0,39.0,31.7,09.8,0000.0,0003.92,0000.68,0000.42
2021-11-29 00:53:00,,0829.6,4.99,0.00,30.0,29.2,00.0,39.0,31.7,09.8,0000.0,0002.88,0000.69,0000.41
2021-11-29 00:54:00,,0829.6,5.01,0.00,30.0,29.2,00.0,39.0,31.7,09.9,0000.0,0001.90,0000.66,0000.40
2021-11-29 00:55:00,,0829.6,4.99,0.00,30.0,29.2,00.0,39.0,31.8,09.8,0000.0,0001.82,0000.64,0000.39
2021-11-29 00:56:00,,0829.6,5.02,0.00,30.0,29.2,00.0,39.0,31.7,09.9,0000.0,0001.77,0000.62,0000.38
2021-11-29 00:57:00,,0829.5,4.99,0.00,30.0,29.2,00.0,39.0,31.7,09.8,0000.0,0001.80,0000.63,0000.38
2021-11-29 00:58:00,,0829.5,5.00,0.00,30.0,29.2,00.0,39.0,31.7,09.8,0000.0,0001.46,0000.65,0000.38
2021-11-29 00:59:00,,0829.6,5.01,0.00,30.0,29.2,00.0,39.0,31.7,09.8,0000.0,0001.36,0000.71,0000.37
